Regional Weather Roundup
Issued by NWS Jackson, KY

Home | Current Version | Previous Version | Graphics & Text | Print | Product List | Glossary On
Versions: 1 2 3 4 5 6 7 8 9 10 11 12 13 14 15 16 17 18 19 20 21 22 23 24 25 26 27
000
ASUS43 KJKL 291810
RWRJKL

EAST KENTUCKY HOURLY WEATHER ROUNDUP
NATIONAL WEATHER SERVICE JACKSON KY
200 PM EDT THU SEP 29 2016

NOTE: "FAIR" INDICATES FEW OR NO CLOUDS BELOW 12,000 FEET WITH
NO SIGNIFICANT WEATHER AND/OR OBSTRUCTIONS TO VISIBILITY.

* THESE REPORTS ARE NOT UNDER NWS QUALITY CONTROL AND MAY NOT
  REPORT WEATHER SUCH AS PRECIPITATION AND FOG.

KYZ079-080-083-085-087-088-110-112-115-119-120-291900
...EASTERN KENTUCKY...

CITY           SKY/WX    TMP DP  RH WIND       PRES   REMARKS
JACKSON        CLOUDY    55  52  89 NW5       30.06S
6HR MIN TEMP:  54; 6HR MAX TEMP:  56; 6HR PCP: TRACE;

LONDON         CLOUDY    61  48  62 CALM      30.06F
6HR MIN TEMP:  53; 6HR MAX TEMP:  61;

SOMERSET*      CLOUDY    61  46  59 W6        30.08S
MONTICELLO*    CLOUDY    62  50  64 W9        30.09S
6HR MIN TEMP:  51; 6HR MAX TEMP:  64;

WILLIAMSBURG*  CLOUDY    57  52  82 CALM      30.07F
MIDDLESBORO*   CLOUDY    62  51  66 N5        30.05F
6HR MIN TEMP:  55; 6HR MAX TEMP:  62;

HARLAN APT*    CLOUDY    57  52  82 W3        30.05S
PIKE CO APT*   CLOUDY    56  56 100 NW7       30.03F FOG
BIG SANDY APT* CLOUDY    57  57 100 N3        30.04F FOG
6HR MIN TEMP:  56; 6HR MAX TEMP:  59;

MOREHEAD APT*  CLOUDY    55  52  88 CALM      30.08S
ASHLAND*       CLOUDY    61  57  88 N5        30.03F
$$

KYZ035-036-041-042-044-050-067-078-099-291900
...CENTRAL KENTUCKY...

CITY           SKY/WX    TMP DP  RH WIND       PRES   REMARKS
MT STERLING*   CLOUDY   N/A N/A N/A NE5       30.08S
FLEMING/MASON* CLOUDY    56  53  88 CALM      30.08F
DANVILLE*      CLOUDY    61  46  59 NW5       30.07S
LEXINGTON      CLOUDY    63  49  60 NE3       30.06S
6HR MIN TEMP:  53; 6HR MAX TEMP:  66;

FRANKFORT      CLOUDY    65  51  60 N6        30.06S
6HR MIN TEMP:  53; 6HR MAX TEMP:  65;

LOUISVILLE     CLOUDY    62  52  69 NW6       30.07S
6HR MIN TEMP:  54; 6HR MAX TEMP:  63; 6HR PCP:  0.08;

LEBANON*       CLOUDY    61  48  63 CALM      30.07S
GLASGOW*       CLOUDY    59  51  73 SW6       30.09F
BOWLING GREEN  CLOUDY    62  51  67 NW3       30.09F
6HR MIN TEMP:  48; 6HR MAX TEMP:  64;

$$

KYZ091>093-OHZ055-061-077-WVZ005-015-034-035-042-291900
...SOUTHERN OHIO/WEST VIRGINIA...

CITY           SKY/WX    TMP DP  RH WIND       PRES   REMARKS
COVINGTON      PTSUNNY   63  52  67 NE9       30.08R
COLUMBUS       CLOUDY    66  56  70 NW5       30.07R
DAYTON         PTSUNNY   63  51  65 E8        30.09S
WILMINGTON     LGT RAIN  58  55  90 VRB3      30.08F
HUNTINGTON     CLOUDY    60  57  89 NW7       30.03S
CHARLESTON     CLOUDY    63  58  83 CALM      30.02F
PINEVILLE*     CLOUDY    68  60  74 MISG      30.03F
BECKLEY        CLOUDY    68  56  65 SE15G26   30.04F
BLUEFIELD      PTSUNNY   67  56  67 SE12G24   30.03F
LOGAN CO APT*  CLOUDY    59  59 100 CALM      30.02R
$$

VAZ002-007-008-TNZ017-027-036-066-071-291900
...SOUTHWEST VIRGINIA/EAST TENNESSEE...

CITY           SKY/WX    TMP DP  RH WIND       PRES   REMARKS
WISE*          CLOUDY    61  48  63 NW5       30.04F
JONESVILLE*    CLOUDY    63  54  72 NW6       30.05S
ABINGDON*      LGT RAIN  64  61  90 W3G16     29.99F
BRISTOL        PTSUNNY   68  53  58 SW8       29.99F
MORRISTOWN*    CLOUDY    64  54  68 N7        30.01S
SEVIERVILLE*   CLOUDY    64  54  68 NW3       30.01F
KNOXVILLE      PTSUNNY   68  52  56 NW5       30.01F
OAK RIDGE      CLOUDY    65  48  54 NW6       30.04F
CROSSVILLE     MOSUNNY   62  46  55 NW12G18   30.08S
NASHVILLE      PTSUNNY   65  49  56 N10       30.09F
$$

...KEY TO REMARKS...
VSB - VISIBILITY IN MILES
WCI - WIND CHILL INDEX
HX  - HEAT INDEX

$$




USA.gov is the U.S. government's official web portal to all federal, state and local government web resources and services.